2016-09-27 06:11:42 r, 17.90m,0000000006Hz,0000075034c,0000000.163s, 027.7C,00002195
2016-09-27 06:11:42 r, 17.94m,0000000006Hz,0000077785c,0000000.169s, 027.7C,00002195
2016-09-27 06:11:42 r, 17.96m,0000000005Hz,0000079767c,0000000.173s, 027.7C,00002195
2016-09-27 06:11:42 r, 18.00m,0000000006Hz,0000082179c,0000000.178s, 027.7C,00002195
2016-09-27 06:11:42 r, 18.03m,0000000006Hz,0000084262c,0000000.183s, 027.7C,00002195
2016-09-27 06:11:42 r, 18.03m,0000000005Hz,0000084441c,0000000.183s, 027.3C,00002195
2016-09-27 06:11:42 r, 18.05m,0000000006Hz,0000086519c,0000000.188s, 027.3C,00002195
2016-09-27 06:11:42 r, 18.06m,0000000006Hz,0000086992c,0000000.189s, 027.3C,00002195
2016-09-27 06:11:42 r, 18.06m,0000000005Hz,0000087408c,0000000.190s, 027.3C,00002195
2016-09-27 06:11:42 r, 18.01m,0000000005Hz,0000082884c,0000000.180s, 027.3C,00002195
2016-09-27 06:11:42 r, 17.76m,0000000007Hz,0000066312c,0000000.144s, 027.3C,00002195
2016-09-27 06:11:42 r, 17.09m,0000000013Hz,0000035865c,0000000.078s, 027.3C,00002195
2016-09-27 06:11:42 r, 15.81m,0000000042Hz,0000010972c,0000000.024s, 027.3C,00002195
2016-09-27 06:11:42 r, 13.81m,0000000266Hz,0000000000c,0000000.000s, 027.3C,00002195
2016-09-27 06:11:42 r, 11.59m,0000002049Hz,0000000000c,0000000.000s, 027.3C,00002195
2016-09-27 06:11:42 r, 09.61m,0000012678Hz,0000000000c,0000000.000s, 027.3C,00002195
2016-09-27 06:11:42 r, 08.15m,0000049022Hz,0000000000c,0000000.000s, 027.3C,00002195
2016-09-27 06:11:42 r, 07.16m,0000121439Hz,0000000000c,0000000.000s, 027.3C,00002195
2016-09-27 06:11:42 r, 06.53m,0000218082Hz,0000000000c,0000000.000s, 027.3C,00002195
2016-09-27 06:11:42 r, 06.11m,0000323351Hz,0000000000c,0000000.000s, 027.3C,00002195
2016-09-27 06:11:42 r, 00.00m,0000424644Hz,0000000000c,0000000.000s, 027.7C,00002195
2016-09-27 06:11:42 r, 00.00m,0000503492Hz,0000000000c,0000000.000s, 027.3C,00002195
2016-09-27 06:11:42 r, 00.00m,0000564198Hz,0000000000c,0000000.000s, 027.7C,00002195
2016-09-27 06:11:42 r, 00.00m,0000564229Hz,0000000000c,0000000.000s, 027.7C,00002195
2016-09-27 06:11:42 r, 00.00m,0000564184Hz,0000000000c,0000000.000s, 028.0C,00002195
2016-09-27 06:11:42 r, 00.00m,0000564225Hz,0000000000c,0000000.000s, 028.3C,00002195
2016-09-27 06:11:42 r, 00.00m,0000564194Hz,0000000000c,0000000.000s, 028.3C,00002195
2016-09-27 06:11:42 r, 00.00m,0000564403Hz,0000000000c,0000000.000s, 029.3C,00002195
2016-09-27 06:11:42 r, 00.00m,0000564534Hz,0000000000c,0000000.000s, 030.9C,00002195
2016-09-27 06:11:42 r, 00.00m,0000564629Hz,0000000000c,0000000.000s, 032.2C,00002195
2016-09-27 06:11:42 r, 00.00m,0000564748Hz,0000000000c,0000000.000s, 032.5C,00002195
2016-09-27 06:16:48 r, 00.00m,0000564952Hz,0000000000c,0000000.000s, 032.8C,00002195
2016-09-27 11:26:44 r, 00.00m,0000564980Hz,0000000000c,0000000.000s, 033.5C,00002195
2016-09-27 11:36:44 r, 00.00m,0000564973Hz,0000000000c,0000000.000s, 033.5C,00002195
2016-09-27 11:46:44 r, 00.00m,0000564946Hz,0000000000c,0000000.000s, 033.5C,00002195
2016-09-27 11:56:45 r, 00.00m,0000565085Hz,0000000000c,0000000.000s, 034.1C,00002195
2016-09-27 12:06:44 r, 00.00m,0000565067Hz,0000000000c,0000000.000s, 034.4C,00002195
2016-09-27 12:16:44 r, 00.00m,0000564992Hz,0000000000c,0000000.000s, 034.1C,00002195
2016-09-27 12:26:44 r, 00.00m,0000565001Hz,0000000000c,0000000.000s, 034.1C,00002195
2016-09-27 12:36:44 r, 00.00m,0000564963Hz,0000000000c,0000000.000s, 034.1C,00002195
2016-09-27 12:46:45 r, 00.00m,0000565071Hz,0000000000c,0000000.000s, 035.1C,00002195
2016-09-27 12:56:46 r, 00.00m,0000565035Hz,0000000000c,0000000.000s, 034.8C,00002195
2016-09-27 13:06:45 r, 00.00m,0000564906Hz,0000000000c,0000000.000s, 033.8C,00002195
2016-09-27 13:16:45 r, 00.00m,0000564895Hz,0000000000c,0000000.000s, 034.4C,00002195
2016-09-27 13:26:45 r, 00.00m,0000564905Hz,0000000000c,0000000.000s, 033.8C,00002195
2016-09-27 13:36:45 r, 00.00m,0000564909Hz,0000000000c,0000000.000s, 033.1C,00002195
2016-09-27 13:46:45 r, 00.00m,0000564784Hz,0000000000c,0000000.000s, 033.1C,00002195
2016-09-27 13:56:45 r, 00.00m,0000564686Hz,0000000000c,0000000.000s, 033.1C,00002195
2016-09-27 14:06:47 r, 00.00m,0000564913Hz,0000000000c,0000000.000s, 033.8C,00002195
2016-09-27 14:16:45 r, 00.00m,0000564894Hz,0000000000c,0000000.000s, 034.1C,00002195
2016-09-27 14:26:45 r, 00.00m,0000564810Hz,0000000000c,0000000.000s, 033.8C,00002195
2016-09-27 14:36:45 r, 00.00m,0000564816Hz,0000000000c,0000000.000s, 033.5C,00002195
2016-09-27 14:46:45 r, 00.00m,0000564664Hz,0000000000c,0000000.000s, 032.5C,00002195
2016-09-27 14:56:45 r, 00.00m,0000564588Hz,0000000000c,0000000.000s, 032.2C,00002195
2016-09-27 15:06:45 r, 00.00m,0000564659Hz,0000000000c,0000000.000s, 032.2C,00002195
2016-09-27 15:16:45 r, 00.00m,0000564642Hz,0000000000c,0000000.000s, 031.5C,00002195
2016-09-27 15:26:45 r, 00.00m,0000564613Hz,0000000000c,0000000.000s, 031.5C,00002195
2016-09-27 15:36:47 r, 00.00m,0000564708Hz,0000000000c,0000000.000s, 031.9C,00002195
2016-09-27 15:46:45 r, 00.00m,0000564714Hz,0000000000c,0000000.000s, 032.2C,00002195
2016-09-27 15:56:45 r, 00.00m,0000564821Hz,0000000000c,0000000.000s, 032.5C,00002195
2016-09-27 16:06:45 r, 00.00m,0000564789Hz,0000000000c,0000000.000s, 032.5C,00002195
2016-09-27 16:16:45 r, 00.00m,0000564828Hz,0000000000c,0000000.000s, 033.1C,00002195
2016-09-27 16:26:45 r, 00.00m,0000564848Hz,0000000000c,0000000.000s, 032.8C,00002195
2016-09-27 16:36:45 r, 00.00m,0000564848Hz,0000000000c,0000000.000s, 032.8C,00002195
2016-09-27 16:46:45 r, 00.00m,0000564746Hz,0000000000c,0000000.000s, 032.8C,00002195
2016-09-27 16:56:47 r, 00.00m,0000564814Hz,0000000000c,0000000.000s, 032.8C,00002195
2016-09-27 17:06:45 r, 00.00m,0000564767Hz,0000000000c,0000000.000s, 032.2C,00002195
2016-09-27 17:16:45 r, 00.00m,0000564626Hz,0000000000c,0000000.000s, 031.5C,00002195
2016-09-27 17:26:45 r, 00.00m,0000564643Hz,0000000000c,0000000.000s, 031.2C,00002195
2016-09-27 17:36:45 r, 00.00m,0000564533Hz,0000000000c,0000000.000s, 030.9C,00002195
2016-09-27 17:46:45 r, 00.00m,0000564546Hz,0000000000c,0000000.000s, 030.6C,00002195
2016-09-27 17:56:45 r, 00.00m,0000564471Hz,0000000000c,0000000.000s, 030.6C,00002195
2016-09-27 18:06:45 r, 00.00m,0000564417Hz,0000000000c,0000000.000s, 029.9C,00002195
2016-09-27 18:16:45 r, 00.00m,0000564359Hz,0000000000c,0000000.000s, 029.3C,00002195
2016-09-27 18:26:45 r, 00.00m,0000564301Hz,0000000000c,0000000.000s, 029.0C,00002195
2016-09-27 18:36:47 r, 00.00m,0000564377Hz,0000000000c,0000000.000s, 029.0C,00002195
2016-09-27 18:46:45 r, 00.00m,0000475678Hz,0000000000c,0000000.000s, 028.6C,00002195
2016-09-27 18:56:45 r, 05.99m,0000358694Hz,0000000000c,0000000.000s, 028.3C,00002195
2016-09-27 19:06:45 r, 06.66m,0000193103Hz,0000000000c,0000000.000s, 028.0C,00002195
2016-09-27 19:16:47 r, 07.76m,0000070171Hz,0000000000c,0000000.000s, 028.0C,00002195
2016-09-27 19:26:45 r, 09.16m,0000019356Hz,0000000000c,0000000.000s, 027.3C,00002195
2016-09-27 19:36:45 r, 10.98m,0000003600Hz,0000000000c,0000000.000s, 027.0C,00002195
2016-09-27 19:46:45 r, 12.86m,0000000637Hz,0000000000c,0000000.000s, 027.0C,00002195
2016-09-27 19:56:45 r, 14.65m,0000000122Hz,0000003773c,0000000.008s, 027.0C,00002195
2016-09-27 20:06:45 r, 15.33m,0000000066Hz,0000007043c,0000000.015s, 027.3C,00002195
2016-09-27 20:16:45 r, 15.50m,0000000056Hz,0000008266c,0000000.018s, 027.3C,00002195
2016-09-27 20:26:45 r, 16.20m,0000000029Hz,0000015721c,0000000.034s, 027.3C,00002195
2016-09-27 20:36:45 r, 16.21m,0000000029Hz,0000015860c,0000000.034s, 027.3C,00002195
2016-09-27 20:46:46 r, 16.18m,0000000030Hz,0000015380c,0000000.033s, 027.3C,00002195
2016-09-27 20:56:45 r, 16.30m,0000000026Hz,0000017315c,0000000.038s, 027.3C,00002195
2016-09-27 21:06:45 r, 17.10m,0000000013Hz,0000036108c,0000000.078s, 027.3C,00002195
2016-09-27 21:16:46 r, 17.44m,0000000009Hz,0000048853c,0000000.106s, 027.3C,00002195
2016-09-27 21:26:45 r, 16.60m,0000000021Hz,0000022678c,0000000.049s, 027.0C,00002195
2016-09-27 21:36:46 r, 16.63m,0000000019Hz,0000023394c,0000000.051s, 027.0C,00002195
2016-09-27 21:46:45 r, 17.20m,0000000012Hz,0000039450c,0000000.086s, 027.3C,00002195
2016-09-27 21:56:45 r, 17.61m,0000000008Hz,0000057550c,0000000.125s, 027.3C,00002195
2016-09-27 22:06:46 r, 17.67m,0000000008Hz,0000060473c,0000000.131s, 027.0C,00002195
2016-09-27 22:16:46 r, 17.70m,0000000007Hz,0000062354c,0000000.135s, 027.0C,00002195
2016-09-27 22:26:46 r, 17.18m,0000000012Hz,0000038885c,0000000.084s, 027.0C,00002195
2016-09-27 22:36:45 r, 17.34m,0000000010Hz,0000045010c,0000000.098s, 026.7C,00002195
2016-09-27 22:46:45 r, 17.13m,0000000013Hz,0000037074c,0000000.080s, 027.0C,00002195
2016-09-27 22:56:45 r, 17.82m,0000000007Hz,0000069865c,0000000.152s, 027.0C,00002195
2016-09-27 23:06:45 r, 18.25m,0000000004Hz,0000103588c,0000000.225s, 026.7C,00002195
2016-09-27 23:16:45 r, 18.65m,0000000003Hz,0000149713c,0000000.325s, 026.7C,00002195
2016-09-27 23:26:45 r, 18.70m,0000000003Hz,0000157342c,0000000.341s, 026.4C,00002195
2016-09-27 23:36:45 r, 18.72m,0000000002Hz,0000160328c,0000000.348s, 026.1C,00002195
2016-09-27 23:46:45 r, 18.72m,0000000002Hz,0000161310c,0000000.350s, 026.1C,00002195
2016-09-27 23:56:45 r, 18.74m,0000000003Hz,0000163213c,0000000.354s, 025.7C,00002195
